This demonstration page uses our WeatherBlox Daily Observations layout. Learn more.

Left ArrowRight Arrow

38.88101, -77.10428

Hourly Observations for March 14, 2019

Temp ( °F °C ) Dew Point ( °F °C ) Humidity (%) Winds ( mph kmh ) Pressure ( in mb ) Visibility ( mi km ) Precip ( " mm )
12:52 am 00:52 Mostly Cloudy 48 8.9 34 1.1 58 58 SSE 6 9 30.24 1024 10 16.0934 0 0
1:52 am 01:52 Partly Cloudy 47 8.3 35 1.7 63 63 S 6 9 30.24 1024 10 16.0934 0 0
2:52 am 02:52 Partly Cloudy 46 7.8 36 2.2 68 68 S 7 11 30.23 1024 10 16.0934 0 0
3:52 am 03:52 Partly Cloudy 46 7.8 36 2.2 68 68 S 6 9 30.21 1023 10 16.0934 0 0
4:52 am 04:52 Mostly Cloudy 46 7.8 36 2.2 68 68 S 8 13 30.18 1022 10 16.0934 0 0
5:52 am 05:52 Partly Cloudy 47 8.3 36 2.2 66 66 SSW 9 15 30.18 1022 10 16.0934 0 0
6:52 am 06:52 Mostly Cloudy 48 8.9 37 2.8 66 66 S 9 15 30.18 1022 10 16.0934 0 0
7:52 am 07:52 Mostly Cloudy 49 9.4 38 3.3 66 66 S 6 9 30.16 1022 10 16.0934 0 0
8:52 am 08:52 Mostly Cloudy 51 10.6 39 3.9 64 64 S 9 15 30.17 1022 10 16.0934 0 0
9:52 am 09:52 Mostly Cloudy 55 12.8 42 5.6 62 62 S 9 15 30.16 1021 10 16.0934 0 0
10:52 am 10:52 Mostly Cloudy 60 15.6 44 6.7 56 56 S 9 15 30.14 1021 10 16.0934 0 0
11:52 am 11:52 Mostly Cloudy 62 16.7 46 7.8 56 56 S 15 24 30.12 1020 10 16.0934 0 0
12:52 pm 12:52 Cloudy 67 19.4 48 8.9 51 51 S 12 19 30.1 1019 10 16.0934 0 0
1:52 pm 13:52 Cloudy 71 21.7 49 9.4 46 46 S 15 24 30.08 1019 10 16.0934 0 0
2:52 pm 14:52 Cloudy 72 22.2 49 9.4 44 44 S 16 26 30.04 1017 10 16.0934 0 0
3:52 pm 15:52 Partly Cloudy 73 22.8 48 8.9 41 41 S 16 26 30.01 1016 10 16.0934 0 0
4:52 pm 16:52 Partly Cloudy 71 21.7 48 8.9 44 44 S 14 22 29.99 1016 10 16.0934 0 0
5:52 pm 17:52 Mostly Cloudy 73 22.8 47 8.3 40 40 S 14 22 29.98 1015 10 16.0934 0 0
6:52 pm 18:52 Mostly Cloudy 65 18.3 48 8.9 54 54 S 12 19 29.97 1015 10 16.0934 0 0
7:52 pm 19:52 Mostly Cloudy 65 18.3 48 8.9 54 54 S 13 20 29.98 1015 10 16.0934 0 0
8:52 pm 20:52 Mostly Cloudy 61 16.1 47 8.3 60 60 S 12 19 29.98 1015 10 16.0934 0 0
9:52 pm 21:52 Mostly Cloudy 64 17.8 48 8.9 56 56 S 12 19 29.98 1015 10 16.0934 0 0
10:52 pm 22:52 Cloudy 62 16.7 48 8.9 60 60 S 15 24 29.95 1014 10 16.0934 0 0
11:52 pm 23:52 Cloudy 62 16.7 48 8.9 60 60 S 12 19 29.94 1014 10 16.0934 0 0

Powered by AerisWeather